Weather History for Minneapolis Flying Cloud, MN

Change the Weather History Date:

Sunday, January 29, 2012

  Actual Average Record
Temperature  
Mean Temperature 16 °F -  
Max Temperature 23 °F 23 °F 36 °F (2013)
Min Temperature 10 °F 9 °F -16 °F (2004)
Degree Days  
Heating Degree Days 48    
Moisture  
Dew Point 9 °F    
Average Humidity 70    
Maximum Humidity 86    
Minimum Humidity 56    
Precipitation  
Precipitation 0.01 in - - ()
Sea Level Pressure  
Sea Level Pressure 30.12 in    
Wind  
Wind Speed 7 mph (WNW)    
Max Wind Speed 12 mph    
Max Gust Speed -    
Visibility 9 miles    
Events Snow    
Averages and records for this station are not official NWS values.
T = Trace of Precipitation, MM = Missing Value Source: NWS Daily Summary

Daily Weather History Graph

Daily Weather History Graph

Search for Another Location

Airport:

Trip Planner

Search our weather history database for the weather conditions in past years. The results will help you decide how hot, cold, wet, or windy it might be!

Date:

Astronomy

Jan. 29, 2012 Rise Set
Actual Time 7:37 AM CST 5:17 PM CST
Civil Twilight 7:05 AM CST 5:48 PM CST
Nautical Twilight 6:30 AM CST 6:24 PM CST
Astronomical Twilight 5:55 AM CST 6:58 PM CST
Moon 10:08 AM CST (1/29) No Moon Set
Length of Visible Light 10h 43m
Length of Day
9h 40m
Waxing Crescent, 37% of the Moon is Illuminated
Jan 29
Waxing Crescent
Jan 30
First Quarter
Feb 7
Full
Feb 14
Last Quarter
Feb 21
New

Hourly Weather History & Observations

Time (CST) Temp. Windchill Dew Point Humidity Pressure Visibility Wind Dir Wind Speed Gust Speed Precip Events Conditions
12:12 AM 23.0 °F 17.0 °F 19.4 °F 86% 29.95 in 2.0 mi NNW 4.6 mph - 0.00 in Snow Light Snow
1:00 AM 23.0 °F 14.7 °F 19.4 °F 86% 29.96 in 3.0 mi NW 6.9 mph - 0.00 in Snow Light Snow
1:53 AM 21.9 °F 13.4 °F 17.1 °F 82% 30.02 in 5.0 mi NNW 6.9 mph - 0.01 in Snow Light Snow
2:53 AM 19.9 °F 8.6 °F 15.1 °F 81% 30.05 in 10.0 mi NW 10.4 mph - 0.00 in   Overcast
3:53 AM 18.0 °F 6.9 °F 10.9 °F 74% 30.08 in 10.0 mi NW 9.2 mph - N/A   Clear
4:53 AM 17.1 °F 5.8 °F 9.0 °F 71% 30.10 in 10.0 mi NW 9.2 mph - N/A   Clear
5:53 AM 15.1 °F 2.5 °F 8.1 °F 74% 30.13 in 10.0 mi WNW 10.4 mph - N/A   Clear
6:53 AM 12.9 °F -0.2 °F 6.1 °F 74% 30.16 in 10.0 mi WNW 10.4 mph - N/A   Clear
7:53 AM 10.9 °F 1.4 °F 5.0 °F 77% 30.18 in 10.0 mi NW 5.8 mph - N/A   Clear
8:53 AM 12.0 °F -1.3 °F 5.0 °F 73% 30.19 in 10.0 mi NW 10.4 mph - N/A   Clear
9:53 AM 12.9 °F 0.7 °F 3.9 °F 67% 30.21 in 10.0 mi NW 9.2 mph - N/A   Clear
11:53 AM 17.1 °F 7.6 °F 3.9 °F 56% 30.22 in 10.0 mi WNW 6.9 mph - N/A   Clear
12:53 PM 19.0 °F 11.1 °F 6.1 °F 57% 30.20 in 10.0 mi WNW 5.8 mph - N/A   Clear
1:53 PM 19.0 °F 9.0 °F 7.0 °F 59% 30.17 in 10.0 mi WSW 8.1 mph - N/A   Clear
2:53 PM 19.9 °F 10.1 °F 7.0 °F 57% 30.18 in 10.0 mi WNW 8.1 mph - N/A   Clear
3:53 PM 19.0 °F 12.3 °F 6.1 °F 57% 30.17 in 10.0 mi SW 4.6 mph - N/A   Clear
4:53 PM 16.0 °F 7.4 °F 6.1 °F 65% 30.17 in 10.0 mi SSW 5.8 mph - N/A   Clear
5:53 PM 15.1 °F - 6.1 °F 68% 30.16 in 10.0 mi Calm Calm - N/A   Clear
6:53 PM 16.0 °F - 7.0 °F 68% 30.15 in 10.0 mi Calm Calm - N/A   Overcast
7:53 PM 17.1 °F 8.7 °F 9.0 °F 71% 30.14 in 10.0 mi SE 5.8 mph - N/A   Overcast
8:53 PM 18.0 °F 9.8 °F 9.0 °F 68% 30.12 in 10.0 mi SE 5.8 mph - N/A   Overcast
9:53 PM 19.0 °F 7.5 °F 10.0 °F 68% 30.08 in 10.0 mi SE 10.4 mph - N/A   Overcast
10:53 PM 19.0 °F 6.8 °F 10.9 °F 71% 30.02 in 10.0 mi ESE 11.5 mph - N/A   Overcast
11:53 PM 19.9 °F 8.6 °F 12.0 °F 71% 29.99 in 10.0 mi ESE 10.4 mph - N/A   Overcast